This demonstration page uses our WeatherBlox Daily Observations layout. Learn more.

Left ArrowRight Arrow

44.8408, -93.29828

Hourly Observations for March 15, 2018

Temp ( °F °C ) Dew Point ( °F °C ) Humidity (%) Winds ( mph kmh ) Pressure ( in mb ) Visibility ( mi km ) Precip ( " mm )
12:53 am 00:53 Clear 32 0 23 -5 69 69 NW 7 11 29.92 1013 10 16 0.00 0.00
1:53 am 01:53 Clear 32 0 22 -5.6 66 66 NNW 7 11 29.93 1013 8 13 0.00 0.00
2:53 am 02:53 Clear 32 0 22 -5.6 66 66 N 8 13 29.93 1014 10 16 0.00 0.00
3:53 am 03:53 Clear 32 0 22 -5.6 66 66 N 7 11 29.93 1014 10 16 0.00 0.00
4:53 am 04:53 Clear 30 -1.1 21 -6.1 69 69 N 7 11 29.94 1014 10 16 0.00 0.00
5:53 am 05:53 Clear 28 -2.2 21 -6.1 75 75 N 6 9 29.96 1014 10 16 0.00 0.00
6:53 am 06:53 Clear 28 -2.2 20 -6.7 72 72 N 7 11 29.97 1015 10 16 0.00 0.00
7:53 am 07:53 Sunny 28 -2.2 21 -6.1 75 75 N 9 15 30.00 1016 10 16 0.00 0.00
8:53 am 08:53 Sunny 30 -1.1 21 -6.1 69 69 NE 13 20 30.02 1017 10 16 0.00 0.00
9:53 am 09:53 Sunny 31 -0.6 21 -6.1 67 67 NNE 10 17 30.04 1017 10 16 0.00 0.00
10:53 am 10:53 Sunny 32 0 21 -6.1 64 64 N 10 17 30.05 1018 10 16 0.00 0.00
11:53 am 11:53 Sunny 34 1.1 18 -7.8 52 52 N 10 17 30.06 1018 10 16 0.00 0.00
12:53 pm 12:53 Sunny 35 1.7 12 -11.1 38 38 NNE 15 24 30.05 1018 10 16 0.00 0.00
1:53 pm 13:53 Mostly Sunny 37 2.8 12 -11.1 36 36 NNE 14 22 30.05 1018 10 16 0.00 0.00
2:53 pm 14:53 Mostly Sunny 38 3.3 12 -11.1 34 34 NNE 14 22 30.04 1017 10 16 0.00 0.00
3:53 pm 15:53 Mostly Sunny 38 3.3 11 -11.7 33 33 NE 13 20 30.04 1017 10 16 0.00 0.00
4:53 pm 16:53 Partly Cloudy 38 3.3 10 -12.2 31 31 NE 12 19 30.04 1017 10 16 0.00 0.00
5:53 pm 17:53 Mostly Cloudy 37 2.8 10 -12.2 33 33 NE 12 19 30.05 1018 10 16 0.00 0.00
6:53 pm 18:53 Mostly Cloudy 35 1.7 10 -12.2 35 35 NE 10 17 30.06 1018 10 16 0.00 0.00
7:53 pm 19:53 Partly Cloudy 34 1.1 9 -12.8 35 35 NE 7 11 30.08 1019 10 16 0.00 0.00
8:53 pm 20:53 Partly Cloudy 33 0.6 8 -13.3 35 35 NE 7 11 30.09 1019 10 16 0.00 0.00
9:53 pm 21:53 Partly Cloudy 31 -0.6 9 -12.8 40 40 ENE 7 11 30.11 1020 10 16 0.00 0.00
10:53 pm 22:53 Partly Cloudy 30 -1.1 8 -13.3 39 39 ENE 12 19 30.12 1020 10 16 0.00 0.00
11:53 pm 23:53 Mostly Clear 29 -1.7 6 -14.4 38 38 ENE 8 13 30.14 1021 10 16 0.00 0.00

Powered by AerisWeather